Year,Month,Day,Hour,Minute,Value (Times are PST for temperature in C)
2013,04,25,00,00,8.70
2013,04,25,00,01,8.70
2013,04,25,00,02,8.70
2013,04,25,00,03,8.70
2013,04,25,00,04,8.70
2013,04,25,00,05,8.70
2013,04,25,00,06,8.70
2013,04,25,00,07,8.70
2013,04,25,00,08,8.70
2013,04,25,00,09,8.70
2013,04,25,00,10,8.70
2013,04,25,00,11,8.70
2013,04,25,00,12,8.70
2013,04,25,00,13,8.70
2013,04,25,00,14,8.70
2013,04,25,00,15,8.70
2013,04,25,00,16,8.70
2013,04,25,00,17,8.70
2013,04,25,00,18,8.70
2013,04,25,00,19,8.70
2013,04,25,00,20,8.60
2013,04,25,00,21,8.60
2013,04,25,00,22,8.60
2013,04,25,00,23,8.60
2013,04,25,00,24,8.60
2013,04,25,00,25,8.60
2013,04,25,00,26,8.50
2013,04,25,00,27,8.50
2013,04,25,00,28,8.50
2013,04,25,00,29,8.50
2013,04,25,00,30,8.50
2013,04,25,00,31,8.40
2013,04,25,00,32,8.40
2013,04,25,00,33,8.40
2013,04,25,00,34,8.40
2013,04,25,00,35,8.40
2013,04,25,00,36,8.40
2013,04,25,00,37,8.40
2013,04,25,00,38,8.40
2013,04,25,00,39,8.40
2013,04,25,00,40,8.40
2013,04,25,00,41,8.40
2013,04,25,00,42,8.40
2013,04,25,00,43,8.40
2013,04,25,00,44,8.40
2013,04,25,00,45,8.40
2013,04,25,00,46,8.40
2013,04,25,00,47,8.40
2013,04,25,00,48,8.40
2013,04,25,00,49,8.30
2013,04,25,00,50,8.30
2013,04,25,00,51,8.30
2013,04,25,00,52,8.30
2013,04,25,00,53,8.30
2013,04,25,00,54,8.30
2013,04,25,00,55,8.30
2013,04,25,00,56,8.20
2013,04,25,00,57,8.20
2013,04,25,00,58,8.20
2013,04,25,00,59,8.20
2013,04,25,01,00,8.10
2013,04,25,01,01,8.10
2013,04,25,01,02,8.10
2013,04,25,01,03,8.00
2013,04,25,01,04,8.00
2013,04,25,01,05,8.00
2013,04,25,01,06,8.00
2013,04,25,01,07,7.90
2013,04,25,01,08,7.90
2013,04,25,01,09,7.90
2013,04,25,01,10,7.90
2013,04,25,01,11,7.90
2013,04,25,01,12,7.90
2013,04,25,01,13,7.90
2013,04,25,01,14,7.90
2013,04,25,01,15,7.90
2013,04,25,01,16,7.80
2013,04,25,01,17,7.80
2013,04,25,01,18,7.80
2013,04,25,01,19,7.80
2013,04,25,01,20,7.80
2013,04,25,01,21,7.80
2013,04,25,01,22,7.80
2013,04,25,01,23,7.80
2013,04,25,01,24,7.80
2013,04,25,01,25,7.80
2013,04,25,01,26,7.80
2013,04,25,01,27,7.70
2013,04,25,01,28,7.70
2013,04,25,01,29,7.70
2013,04,25,01,30,7.70
2013,04,25,01,31,7.70
2013,04,25,01,32,7.70
2013,04,25,01,33,7.70
2013,04,25,01,34,7.70
2013,04,25,01,35,7.70
2013,04,25,01,36,7.70
2013,04,25,01,37,7.70
2013,04,25,01,38,7.70
2013,04,25,01,39,7.70
2013,04,25,01,40,7.70
2013,04,25,01,41,7.70
2013,04,25,01,42,7.70
2013,04,25,01,43,7.70
2013,04,25,01,44,7.60
2013,04,25,01,45,7.60
2013,04,25,01,46,7.60
2013,04,25,01,47,7.60
2013,04,25,01,48,7.60
2013,04,25,01,49,7.60
2013,04,25,01,50,7.60
2013,04,25,01,51,7.60
2013,04,25,01,52,7.60
2013,04,25,01,53,7.50
2013,04,25,01,54,7.50
2013,04,25,01,55,7.50
2013,04,25,01,56,7.50
2013,04,25,01,57,7.40
2013,04,25,01,58,7.40
2013,04,25,01,59,7.40
2013,04,25,02,00,7.40
2013,04,25,02,01,7.40
2013,04,25,02,02,7.40
2013,04,25,02,03,7.40
2013,04,25,02,04,7.40
2013,04,25,02,05,7.30
2013,04,25,02,06,7.30
2013,04,25,02,07,7.30
2013,04,25,02,08,7.30
2013,04,25,02,09,7.30
2013,04,25,02,10,7.30
2013,04,25,02,11,7.30
2013,04,25,02,12,7.30
2013,04,25,02,13,7.20
2013,04,25,02,14,7.20
2013,04,25,02,15,7.20
2013,04,25,02,16,7.20
2013,04,25,02,17,7.20
2013,04,25,02,18,7.20
2013,04,25,02,19,7.20
2013,04,25,02,20,7.20
2013,04,25,02,21,7.20
2013,04,25,02,22,7.10
2013,04,25,02,23,7.10
2013,04,25,02,24,7.10
2013,04,25,02,25,7.10
2013,04,25,02,26,7.10
2013,04,25,02,27,7.10
2013,04,25,02,28,7.10
2013,04,25,02,29,7.10
2013,04,25,02,30,7.00
2013,04,25,02,31,7.00
2013,04,25,02,32,7.00
2013,04,25,02,33,7.00
2013,04,25,02,34,7.00
2013,04,25,02,35,6.90
2013,04,25,02,36,6.90
2013,04,25,02,37,6.90
2013,04,25,02,38,6.90
2013,04,25,02,39,6.90
2013,04,25,02,40,6.90
2013,04,25,02,41,6.90
2013,04,25,02,42,6.80
2013,04,25,02,43,6.80
2013,04,25,02,44,6.80
2013,04,25,02,45,6.80
2013,04,25,02,46,6.80
2013,04,25,02,47,6.80
2013,04,25,02,48,6.80
2013,04,25,02,49,6.80
2013,04,25,02,50,6.70
2013,04,25,02,51,6.70
2013,04,25,02,52,6.70
2013,04,25,02,53,6.70
2013,04,25,02,54,6.70
2013,04,25,02,55,6.70
2013,04,25,02,56,6.70
2013,04,25,02,57,6.70
2013,04,25,02,58,6.70
2013,04,25,02,59,6.70
2013,04,25,03,00,6.70
2013,04,25,03,01,6.70
2013,04,25,03,02,6.70
2013,04,25,03,03,6.70
2013,04,25,03,04,6.70
2013,04,25,03,05,6.70
2013,04,25,03,06,6.70
2013,04,25,03,07,6.70
2013,04,25,03,08,6.70
2013,04,25,03,09,6.60
2013,04,25,03,10,6.60
2013,04,25,03,11,6.60
2013,04,25,03,12,6.60
2013,04,25,03,13,6.60
2013,04,25,03,14,6.60
2013,04,25,03,15,6.60
2013,04,25,03,16,6.60
2013,04,25,03,17,6.60
2013,04,25,03,18,6.60
2013,04,25,03,19,6.60
2013,04,25,03,20,6.60
2013,04,25,03,21,6.60
2013,04,25,03,22,6.50
2013,04,25,03,23,6.50
2013,04,25,03,24,6.50
2013,04,25,03,25,6.50
2013,04,25,03,26,6.50
2013,04,25,03,27,6.50
2013,04,25,03,28,6.50
2013,04,25,03,29,6.50
2013,04,25,03,30,6.50
2013,04,25,03,31,6.40
2013,04,25,03,32,6.40
2013,04,25,03,33,6.40
2013,04,25,03,34,6.40
2013,04,25,03,35,6.40
2013,04,25,03,36,6.40
2013,04,25,03,37,6.40
2013,04,25,03,38,6.40
2013,04,25,03,39,6.40
2013,04,25,03,40,6.40
2013,04,25,03,41,6.40
2013,04,25,03,42,6.40
2013,04,25,03,43,6.40
2013,04,25,03,44,6.40
2013,04,25,03,45,6.40
2013,04,25,03,46,6.40
2013,04,25,03,47,6.40
2013,04,25,03,48,6.40
2013,04,25,03,49,6.40
2013,04,25,03,50,6.40
2013,04,25,03,51,6.40
2013,04,25,03,52,6.40
2013,04,25,03,53,6.40
2013,04,25,03,54,6.30
2013,04,25,03,55,6.30
2013,04,25,03,56,6.30
2013,04,25,03,57,6.30
2013,04,25,03,58,6.30
2013,04,25,03,59,6.30
2013,04,25,04,00,6.30
2013,04,25,04,01,6.30
2013,04,25,04,02,6.30
2013,04,25,04,03,6.30
2013,04,25,04,04,6.20
2013,04,25,04,05,6.20
2013,04,25,04,06,6.20
2013,04,25,04,07,6.20
2013,04,25,04,08,6.20
2013,04,25,04,09,6.20
2013,04,25,04,10,6.20
2013,04,25,04,11,6.20
2013,04,25,04,12,6.10
2013,04,25,04,13,6.10
2013,04,25,04,14,6.10
2013,04,25,04,15,6.10
2013,04,25,04,16,6.10
2013,04,25,04,17,6.10
2013,04,25,04,18,6.10
2013,04,25,04,19,6.00
2013,04,25,04,20,6.00
2013,04,25,04,21,6.00
2013,04,25,04,22,6.00
2013,04,25,04,23,6.00
2013,04,25,04,24,6.00
2013,04,25,04,25,6.00
2013,04,25,04,26,5.90
2013,04,25,04,27,5.90
2013,04,25,04,28,5.90
2013,04,25,04,29,5.90
2013,04,25,04,30,5.90
2013,04,25,04,31,5.90
2013,04,25,04,32,5.80
2013,04,25,04,33,5.80
2013,04,25,04,34,5.80
2013,04,25,04,35,5.80
2013,04,25,04,36,5.80
2013,04,25,04,37,5.80
2013,04,25,04,38,5.80
2013,04,25,04,39,5.80
2013,04,25,04,40,5.80
2013,04,25,04,41,5.80
2013,04,25,04,42,5.80
2013,04,25,04,43,5.80
2013,04,25,04,44,5.80
2013,04,25,04,45,5.80
2013,04,25,04,46,5.80
2013,04,25,04,47,5.80
2013,04,25,04,48,5.80
2013,04,25,04,49,5.80
2013,04,25,04,50,5.80
2013,04,25,04,51,5.80
2013,04,25,04,52,5.80
2013,04,25,04,53,5.80
2013,04,25,04,54,5.80
2013,04,25,04,55,5.80
2013,04,25,04,56,5.80
2013,04,25,04,57,5.80
2013,04,25,04,58,5.80
2013,04,25,04,59,5.80
2013,04,25,05,00,5.80
2013,04,25,05,01,5.70
2013,04,25,05,02,5.70
2013,04,25,05,03,5.70
2013,04,25,05,04,5.70
2013,04,25,05,05,5.70
2013,04,25,05,06,5.70
2013,04,25,05,07,5.70
2013,04,25,05,08,5.70
2013,04,25,05,09,5.70
2013,04,25,05,10,5.70
2013,04,25,05,11,5.70
2013,04,25,05,12,5.70
2013,04,25,05,13,5.60
2013,04,25,05,14,5.60
2013,04,25,05,15,5.60
2013,04,25,05,16,5.60
2013,04,25,05,17,5.60
2013,04,25,05,18,5.60
2013,04,25,05,19,5.60
2013,04,25,05,20,5.60
2013,04,25,05,21,5.60
2013,04,25,05,22,5.60
2013,04,25,05,23,5.60
2013,04,25,05,24,5.60
2013,04,25,05,25,5.60
2013,04,25,05,26,5.50
2013,04,25,05,27,5.50
2013,04,25,05,28,5.50
2013,04,25,05,29,5.50
2013,04,25,05,30,5.50
2013,04,25,05,31,5.50
2013,04,25,05,32,5.50
2013,04,25,05,33,5.50
2013,04,25,05,34,5.50
2013,04,25,05,35,5.50
2013,04,25,05,36,5.40
2013,04,25,05,37,5.40
2013,04,25,05,38,5.40
2013,04,25,05,39,5.40
2013,04,25,05,40,5.40
2013,04,25,05,41,5.40
2013,04,25,05,42,5.40
2013,04,25,05,43,5.40
2013,04,25,05,44,5.40
2013,04,25,05,45,5.40
2013,04,25,05,46,5.40
2013,04,25,05,47,5.40
2013,04,25,05,48,5.40
2013,04,25,05,49,5.40
2013,04,25,05,50,5.40
2013,04,25,05,51,5.40
2013,04,25,05,52,5.40
2013,04,25,05,53,5.40
2013,04,25,05,54,5.30
2013,04,25,05,55,5.30
2013,04,25,05,56,5.30
2013,04,25,05,57,5.30
2013,04,25,05,58,5.30
2013,04,25,05,59,5.30
2013,04,25,06,00,5.30
2013,04,25,06,01,5.30
2013,04,25,06,02,5.30
2013,04,25,06,03,5.30
2013,04,25,06,04,5.30
2013,04,25,06,05,5.30
2013,04,25,06,06,5.30
2013,04,25,06,07,5.30
2013,04,25,06,08,5.30
2013,04,25,06,09,5.30
2013,04,25,06,10,5.40
2013,04,25,06,11,5.40
2013,04,25,06,12,5.40
2013,04,25,06,13,5.40
2013,04,25,06,14,5.40
2013,04,25,06,15,5.50
2013,04,25,06,16,5.50
2013,04,25,06,17,5.50
2013,04,25,06,18,5.60
2013,04,25,06,19,5.60
2013,04,25,06,20,5.60
2013,04,25,06,21,5.70
2013,04,25,06,22,5.70
2013,04,25,06,23,5.70
2013,04,25,06,24,5.70
2013,04,25,06,25,5.70
2013,04,25,06,26,5.70
2013,04,25,06,27,5.70
2013,04,25,06,28,5.70
2013,04,25,06,29,5.70
2013,04,25,06,30,5.70
2013,04,25,06,31,5.60
2013,04,25,06,32,5.60
2013,04,25,06,33,5.60
2013,04,25,06,34,5.60
2013,04,25,06,35,5.60
2013,04,25,06,36,5.60
2013,04,25,06,37,5.60
2013,04,25,06,38,5.50
2013,04,25,06,39,5.50
2013,04,25,06,40,5.50
2013,04,25,06,41,5.50
2013,04,25,06,42,5.50
2013,04,25,06,43,5.50
2013,04,25,06,44,5.60
2013,04,25,06,45,5.60
2013,04,25,06,46,5.60
2013,04,25,06,47,5.60
2013,04,25,06,48,5.60
2013,04,25,06,49,5.60
2013,04,25,06,50,5.60
2013,04,25,06,51,5.60
2013,04,25,06,52,5.60
2013,04,25,06,53,5.70
2013,04,25,06,54,5.70
2013,04,25,06,55,5.70
2013,04,25,06,56,5.70
2013,04,25,06,57,5.70
2013,04,25,06,58,5.70
2013,04,25,06,59,5.70
2013,04,25,07,00,5.70
2013,04,25,07,01,5.70
2013,04,25,07,02,5.80
2013,04,25,07,03,5.80
2013,04,25,07,04,5.80
2013,04,25,07,05,5.80
2013,04,25,07,06,5.80
2013,04,25,07,07,5.80
2013,04,25,07,08,5.80
2013,04,25,07,09,5.80
2013,04,25,07,10,5.90
2013,04,25,07,11,5.90
2013,04,25,07,12,5.90
2013,04,25,07,13,6.00
2013,04,25,07,14,6.00
2013,04,25,07,15,6.10
2013,04,25,07,16,6.10
2013,04,25,07,17,6.10
2013,04,25,07,18,6.20
2013,04,25,07,19,6.20
2013,04,25,07,20,6.20
2013,04,25,07,21,6.20
2013,04,25,07,22,6.30
2013,04,25,07,23,6.30
2013,04,25,07,24,6.30
2013,04,25,07,25,6.30
2013,04,25,07,26,6.30
2013,04,25,07,27,6.40
2013,04,25,07,28,6.40
2013,04,25,07,29,6.40
2013,04,25,07,30,6.40
2013,04,25,07,31,6.50
2013,04,25,07,32,6.50
2013,04,25,07,33,6.50
2013,04,25,07,34,6.60
2013,04,25,07,35,6.60
2013,04,25,07,36,6.60
2013,04,25,07,37,6.70
2013,04,25,07,38,6.70
2013,04,25,07,39,6.80
2013,04,25,07,40,6.80
2013,04,25,07,41,6.90
2013,04,25,07,42,6.90
2013,04,25,07,43,7.00
2013,04,25,07,44,7.00
2013,04,25,07,45,7.10
2013,04,25,07,46,7.10
2013,04,25,07,47,7.20
2013,04,25,07,48,7.20
2013,04,25,07,49,7.20
2013,04,25,07,50,7.30
2013,04,25,07,51,7.30
2013,04,25,07,52,7.40
2013,04,25,07,53,7.40
2013,04,25,07,54,7.50
2013,04,25,07,55,7.50
2013,04,25,07,56,7.60
2013,04,25,07,57,7.60
2013,04,25,07,58,7.60
2013,04,25,07,59,7.70
2013,04,25,08,00,7.70
2013,04,25,08,01,7.80
2013,04,25,08,02,7.80
2013,04,25,08,03,7.80
2013,04,25,08,04,7.90
2013,04,25,08,05,8.00
2013,04,25,08,06,8.00
2013,04,25,08,07,8.10
2013,04,25,08,08,8.20
2013,04,25,08,09,8.20
2013,04,25,08,10,8.30
2013,04,25,08,11,8.40
2013,04,25,08,12,8.40
2013,04,25,08,13,8.50
2013,04,25,08,14,8.60
2013,04,25,08,15,8.70
2013,04,25,08,16,8.80
2013,04,25,08,17,8.90
2013,04,25,08,18,8.90
2013,04,25,08,19,9.00
2013,04,25,08,20,9.10
2013,04,25,08,21,9.20
2013,04,25,08,22,9.20
2013,04,25,08,23,9.30
2013,04,25,08,24,9.40
2013,04,25,08,25,9.50
2013,04,25,08,26,9.50
2013,04,25,08,27,9.60
2013,04,25,08,28,9.70
2013,04,25,08,29,9.80
2013,04,25,08,30,9.80
2013,04,25,08,31,9.90
2013,04,25,08,32,10.00
2013,04,25,08,33,10.10
2013,04,25,08,34,10.20
2013,04,25,08,35,10.30
2013,04,25,08,36,10.30
2013,04,25,08,37,10.40
2013,04,25,08,38,10.50
2013,04,25,08,39,10.60
2013,04,25,08,40,10.60
2013,04,25,08,41,10.70
2013,04,25,08,42,10.80
2013,04,25,08,43,10.90
2013,04,25,08,44,10.90
2013,04,25,08,45,11.00
2013,04,25,08,46,11.10
2013,04,25,08,47,11.20
2013,04,25,08,48,11.20
2013,04,25,08,49,11.30
2013,04,25,08,50,11.30
2013,04,25,08,51,11.40
2013,04,25,08,52,11.50
2013,04,25,08,53,11.50
2013,04,25,08,54,11.60
2013,04,25,08,55,11.60
2013,04,25,08,56,11.70
2013,04,25,08,57,11.80
2013,04,25,08,58,11.80
2013,04,25,08,59,11.90
2013,04,25,09,00,11.90
2013,04,25,09,01,12.00
2013,04,25,09,02,12.00
2013,04,25,09,03,12.10
2013,04,25,09,04,12.10
2013,04,25,09,05,12.20
2013,04,25,09,06,12.20
2013,04,25,09,07,12.30
2013,04,25,09,08,12.40
2013,04,25,09,09,12.40
2013,04,25,09,10,12.50
2013,04,25,09,11,12.60
2013,04,25,09,12,12.70
2013,04,25,09,13,12.90
2013,04,25,09,14,13.00
2013,04,25,09,15,13.20
2013,04,25,09,16,13.30
2013,04,25,09,17,13.40
2013,04,25,09,18,13.50
2013,04,25,09,19,13.60
2013,04,25,09,20,13.70
2013,04,25,09,21,13.70
2013,04,25,09,22,13.70
2013,04,25,09,23,13.80
2013,04,25,09,24,13.80
2013,04,25,09,25,13.80
2013,04,25,09,26,13.90
2013,04,25,09,27,13.90
2013,04,25,09,28,14.00
2013,04,25,09,29,14.00
2013,04,25,09,30,14.10
2013,04,25,09,31,14.10
2013,04,25,09,32,14.20
2013,04,25,09,33,14.20
2013,04,25,09,34,14.20
2013,04,25,09,35,14.30
2013,04,25,09,36,14.30
2013,04,25,09,37,14.40
2013,04,25,09,38,14.40
2013,04,25,09,39,14.40
2013,04,25,09,40,14.40
2013,04,25,09,41,14.50
2013,04,25,09,42,14.50
2013,04,25,09,43,14.50
2013,04,25,09,44,14.50
2013,04,25,09,45,14.60
2013,04,25,09,46,14.60
2013,04,25,09,47,14.60
2013,04,25,09,48,14.60
2013,04,25,09,49,14.70
2013,04,25,09,50,14.70
2013,04,25,09,51,14.80
2013,04,25,09,52,14.80
2013,04,25,09,53,14.90
2013,04,25,09,54,15.00
2013,04,25,09,55,15.00
2013,04,25,09,56,15.10
2013,04,25,09,57,15.20
2013,04,25,09,58,15.20
2013,04,25,09,59,15.30
2013,04,25,10,00,15.40
2013,04,25,10,01,15.40
2013,04,25,10,02,15.40
2013,04,25,10,03,15.40
2013,04,25,10,04,15.50
2013,04,25,10,05,15.60
2013,04,25,10,06,15.60
2013,04,25,10,07,15.60
2013,04,25,10,08,15.70
2013,04,25,10,09,15.70
2013,04,25,10,10,15.70
2013,04,25,10,11,15.70
2013,04,25,10,12,15.70
2013,04,25,10,13,15.80
2013,04,25,10,14,15.90
2013,04,25,10,15,15.90
2013,04,25,10,16,16.00
2013,04,25,10,17,16.00
2013,04,25,10,18,16.10
2013,04,25,10,19,16.10
2013,04,25,10,20,16.20
2013,04,25,10,21,16.20
2013,04,25,10,22,16.20
2013,04,25,10,23,16.30
2013,04,25,10,24,16.30
2013,04,25,10,25,16.30
2013,04,25,10,26,16.30
2013,04,25,10,27,16.30
2013,04,25,10,28,16.40
2013,04,25,10,29,16.40
2013,04,25,10,30,16.40
2013,04,25,10,31,16.40
2013,04,25,10,32,16.30
2013,04,25,10,33,16.30
2013,04,25,10,34,16.30
2013,04,25,10,35,16.20
2013,04,25,10,36,16.30
2013,04,25,10,37,16.30
2013,04,25,10,38,16.30
2013,04,25,10,39,16.40
2013,04,25,10,40,16.50
2013,04,25,10,41,16.50
2013,04,25,10,42,16.60
2013,04,25,10,43,16.60
2013,04,25,10,44,16.70
2013,04,25,10,45,16.80
2013,04,25,10,46,16.80
2013,04,25,10,47,16.90
2013,04,25,10,48,16.90
2013,04,25,10,49,16.90
2013,04,25,10,50,16.90
2013,04,25,10,51,16.90
2013,04,25,10,52,16.90
2013,04,25,10,53,17.00
2013,04,25,10,54,17.10
2013,04,25,10,55,17.10
2013,04,25,10,56,17.20
2013,04,25,10,57,17.20
2013,04,25,10,58,17.20
2013,04,25,10,59,17.30
2013,04,25,11,00,17.30
2013,04,25,11,01,17.30
2013,04,25,11,02,17.40
2013,04,25,11,03,17.40
2013,04,25,11,04,17.40
2013,04,25,11,05,17.50
2013,04,25,11,06,17.40
2013,04,25,11,07,17.40
2013,04,25,11,08,17.30
2013,04,25,11,09,17.30
2013,04,25,11,10,17.20
2013,04,25,11,11,17.20
2013,04,25,11,12,17.30
2013,04,25,11,13,17.30
2013,04,25,11,14,17.40
2013,04,25,11,15,17.50
2013,04,25,11,16,17.50
2013,04,25,11,17,17.60
2013,04,25,11,18,17.60
2013,04,25,11,19,17.60
2013,04,25,11,20,17.60
2013,04,25,11,21,17.50
2013,04,25,11,22,17.50
2013,04,25,11,23,17.60
2013,04,25,11,24,17.60
2013,04,25,11,25,17.60
2013,04,25,11,26,17.60
2013,04,25,11,27,17.60
2013,04,25,11,28,17.70
2013,04,25,11,29,17.70
2013,04,25,11,30,17.70
2013,04,25,11,31,17.80
2013,04,25,11,32,17.80
2013,04,25,11,33,17.80
2013,04,25,11,34,17.80
2013,04,25,11,35,17.80
2013,04,25,11,36,17.80
2013,04,25,11,37,17.80
2013,04,25,11,38,17.80
2013,04,25,11,39,17.80
2013,04,25,11,40,17.80
2013,04,25,11,41,17.80
2013,04,25,11,42,17.80
2013,04,25,11,43,17.80
2013,04,25,11,44,17.80
2013,04,25,11,45,17.80
2013,04,25,11,46,17.80
2013,04,25,11,47,17.80
2013,04,25,11,48,17.80
2013,04,25,11,49,17.70
2013,04,25,11,50,17.70
2013,04,25,11,51,17.70
2013,04,25,11,52,17.70
2013,04,25,11,53,17.70
2013,04,25,11,54,17.60
2013,04,25,11,55,17.60
2013,04,25,11,56,17.60
2013,04,25,11,57,17.50
2013,04,25,11,58,17.50
2013,04,25,11,59,17.50
2013,04,25,12,00,17.40
2013,04,25,12,01,17.40
2013,04,25,12,02,17.50
2013,04,25,12,03,17.50
2013,04,25,12,04,17.50
2013,04,25,12,05,17.50
2013,04,25,12,06,17.40
2013,04,25,12,07,17.50
2013,04,25,12,08,17.50
2013,04,25,12,09,17.60
2013,04,25,12,10,17.70
2013,04,25,12,11,17.70
2013,04,25,12,12,17.70
2013,04,25,12,13,17.70
2013,04,25,12,14,17.70
2013,04,25,12,15,17.60
2013,04,25,12,16,17.60
2013,04,25,12,17,17.60
2013,04,25,12,18,17.50
2013,04,25,12,19,17.50
2013,04,25,12,20,17.40
2013,04,25,12,21,17.40
2013,04,25,12,22,17.40
2013,04,25,12,23,17.30
2013,04,25,12,24,17.30
2013,04,25,12,25,17.30
2013,04,25,12,26,17.30
2013,04,25,12,27,17.30
2013,04,25,12,28,17.30
2013,04,25,12,29,17.30
2013,04,25,12,30,17.30
2013,04,25,12,31,17.30
2013,04,25,12,32,17.30
2013,04,25,12,33,17.30
2013,04,25,12,34,17.30
2013,04,25,12,35,17.30
2013,04,25,12,36,17.30
2013,04,25,12,37,17.30
2013,04,25,12,38,17.30
2013,04,25,12,39,17.30
2013,04,25,12,40,17.40
2013,04,25,12,41,17.40
2013,04,25,12,42,17.50
2013,04,25,12,43,17.50
2013,04,25,12,44,17.60
2013,04,25,12,45,17.60
2013,04,25,12,46,17.70
2013,04,25,12,47,17.80
2013,04,25,12,48,17.80
2013,04,25,12,49,17.90
2013,04,25,12,50,17.90
2013,04,25,12,51,18.00
2013,04,25,12,52,18.00
2013,04,25,12,53,18.00
2013,04,25,12,54,18.00
2013,04,25,12,55,18.00
2013,04,25,12,56,18.00
2013,04,25,12,57,18.00
2013,04,25,12,58,17.90
2013,04,25,12,59,17.90
2013,04,25,13,00,17.90
2013,04,25,13,01,17.80
2013,04,25,13,02,17.80
2013,04,25,13,03,17.80
2013,04,25,13,04,17.80
2013,04,25,13,05,17.70
2013,04,25,13,06,17.70
2013,04,25,13,07,17.80
2013,04,25,13,08,17.80
2013,04,25,13,09,17.80
2013,04,25,13,10,17.80
2013,04,25,13,11,17.80
2013,04,25,13,12,17.90
2013,04,25,13,13,17.90
2013,04,25,13,14,17.90
2013,04,25,13,15,17.90
2013,04,25,13,16,17.90
2013,04,25,13,17,17.90
2013,04,25,13,18,17.90
2013,04,25,13,19,18.00
2013,04,25,13,20,18.00
2013,04,25,13,21,18.10
2013,04,25,13,22,18.10
2013,04,25,13,23,18.10
2013,04,25,13,24,18.20
2013,04,25,13,25,18.10
2013,04,25,13,26,18.10
2013,04,25,13,27,18.20
2013,04,25,13,28,18.20
2013,04,25,13,29,18.20
2013,04,25,13,30,18.20
2013,04,25,13,31,18.20
2013,04,25,13,32,18.20
2013,04,25,13,33,18.20
2013,04,25,13,34,18.20
2013,04,25,13,35,18.20
2013,04,25,13,36,18.20
2013,04,25,13,37,18.30
2013,04,25,13,38,18.30
2013,04,25,13,39,18.30
2013,04,25,13,40,18.40
2013,04,25,13,41,18.40
2013,04,25,13,42,18.50
2013,04,25,13,43,18.50
2013,04,25,13,44,18.60
2013,04,25,13,45,18.60
2013,04,25,13,46,18.60
2013,04,25,13,47,18.60
2013,04,25,13,48,18.60
2013,04,25,13,49,18.60
2013,04,25,13,50,18.60
2013,04,25,13,51,18.60
2013,04,25,13,52,18.60
2013,04,25,13,53,18.70
2013,04,25,13,54,18.70
2013,04,25,13,55,18.70
2013,04,25,13,56,18.80
2013,04,25,13,57,18.80
2013,04,25,13,58,18.90
2013,04,25,13,59,18.90
2013,04,25,14,00,18.90
2013,04,25,14,01,18.90
2013,04,25,14,02,19.00
2013,04,25,14,03,19.00
2013,04,25,14,04,19.00
2013,04,25,14,05,19.10
2013,04,25,14,06,19.10
2013,04,25,14,07,19.10
2013,04,25,14,08,19.10
2013,04,25,14,09,19.10
2013,04,25,14,10,19.10
2013,04,25,14,11,19.20
2013,04,25,14,12,19.20
2013,04,25,14,13,19.20
2013,04,25,14,14,19.30
2013,04,25,14,15,19.30
2013,04,25,14,16,19.30
2013,04,25,14,17,19.30
2013,04,25,14,18,19.40
2013,04,25,14,19,19.40
2013,04,25,14,20,19.40
2013,04,25,14,21,19.40
2013,04,25,14,22,19.40
2013,04,25,14,23,19.50
2013,04,25,14,24,19.50
2013,04,25,14,25,19.60
2013,04,25,14,26,19.70
2013,04,25,14,27,19.80
2013,04,25,14,28,19.80
2013,04,25,14,29,19.90
2013,04,25,14,30,19.90
2013,04,25,14,31,19.90
2013,04,25,14,32,19.90
2013,04,25,14,33,19.90
2013,04,25,14,34,19.90
2013,04,25,14,35,19.90
2013,04,25,14,36,19.90
2013,04,25,14,37,19.90
2013,04,25,14,38,19.90
2013,04,25,14,39,19.90
2013,04,25,14,40,20.00
2013,04,25,14,41,20.00
2013,04,25,14,42,20.10
2013,04,25,14,43,20.10
2013,04,25,14,44,20.20
2013,04,25,14,45,20.20
2013,04,25,14,46,20.30
2013,04,25,14,47,20.30
2013,04,25,14,48,20.30
2013,04,25,14,49,20.40
2013,04,25,14,50,20.40
2013,04,25,14,51,20.50
2013,04,25,14,52,20.50
2013,04,25,14,53,20.50
2013,04,25,14,54,20.60
2013,04,25,14,55,20.60
2013,04,25,14,56,20.60
2013,04,25,14,57,20.60
2013,04,25,14,58,20.60
2013,04,25,14,59,20.50
2013,04,25,15,00,20.50
2013,04,25,15,01,20.40
2013,04,25,15,02,20.40
2013,04,25,15,03,20.30
2013,04,25,15,04,20.30
2013,04,25,15,05,20.30
2013,04,25,15,06,20.30
2013,04,25,15,07,20.30
2013,04,25,15,08,20.20
2013,04,25,15,09,20.20
2013,04,25,15,10,20.10
2013,04,25,15,11,20.10
2013,04,25,15,12,20.10
2013,04,25,15,13,20.00
2013,04,25,15,14,19.90
2013,04,25,15,15,19.90
2013,04,25,15,16,19.90
2013,04,25,15,17,19.90
2013,04,25,15,18,20.00
2013,04,25,15,19,20.00
2013,04,25,15,20,20.10
2013,04,25,15,21,20.10
2013,04,25,15,22,20.20
2013,04,25,15,23,20.20
2013,04,25,15,24,20.20
2013,04,25,15,25,20.20
2013,04,25,15,26,20.20
2013,04,25,15,27,20.20
2013,04,25,15,28,20.20
2013,04,25,15,29,20.20
2013,04,25,15,30,20.20
2013,04,25,15,31,20.20
2013,04,25,15,32,20.20
2013,04,25,15,33,20.20
2013,04,25,15,34,20.20
2013,04,25,15,35,20.20
2013,04,25,15,36,20.10
2013,04,25,15,37,20.10
2013,04,25,15,38,20.00
2013,04,25,15,39,20.00
2013,04,25,15,40,19.90
2013,04,25,15,41,19.90
2013,04,25,15,42,19.90
2013,04,25,15,43,19.80
2013,04,25,15,44,19.90
2013,04,25,15,45,19.90
2013,04,25,15,46,19.90
2013,04,25,15,47,20.00
2013,04,25,15,48,20.00
2013,04,25,15,49,20.00
2013,04,25,15,50,20.00
2013,04,25,15,51,19.90
2013,04,25,15,52,19.90
2013,04,25,15,53,19.80
2013,04,25,15,54,19.80
2013,04,25,15,55,19.70
2013,04,25,15,56,19.70
2013,04,25,15,57,19.70
2013,04,25,15,58,19.70
2013,04,25,15,59,19.80
2013,04,25,16,00,19.80
2013,04,25,16,01,19.80
2013,04,25,16,02,19.90
2013,04,25,16,03,19.90
2013,04,25,16,04,20.00
2013,04,25,16,05,20.00
2013,04,25,16,06,20.00
2013,04,25,16,07,20.00
2013,04,25,16,08,20.10
2013,04,25,16,09,20.00
2013,04,25,16,10,20.00
2013,04,25,16,11,20.00
2013,04,25,16,12,20.00
2013,04,25,16,13,20.00
2013,04,25,16,14,20.00
2013,04,25,16,15,20.00
2013,04,25,16,16,19.90
2013,04,25,16,17,19.90
2013,04,25,16,18,19.90
2013,04,25,16,19,19.80
2013,04,25,16,20,19.80
2013,04,25,16,21,19.80
2013,04,25,16,22,19.80
2013,04,25,16,23,19.80
2013,04,25,16,24,19.80
2013,04,25,16,25,19.90
2013,04,25,16,26,19.90
2013,04,25,16,27,19.90
2013,04,25,16,28,19.90
2013,04,25,16,29,19.90
2013,04,25,16,30,20.00
2013,04,25,16,31,20.00
2013,04,25,16,32,20.00
2013,04,25,16,33,20.00
2013,04,25,16,34,19.90
2013,04,25,16,35,19.90
2013,04,25,16,36,19.90
2013,04,25,16,37,19.90
2013,04,25,16,38,19.90
2013,04,25,16,39,19.90
2013,04,25,16,40,19.90
2013,04,25,16,41,19.80
2013,04,25,16,42,19.80
2013,04,25,16,43,19.70
2013,04,25,16,44,19.70
2013,04,25,16,45,19.70
2013,04,25,16,46,19.70
2013,04,25,16,47,19.60
2013,04,25,16,48,19.70
2013,04,25,16,49,19.70
2013,04,25,16,50,19.70
2013,04,25,16,51,19.60
2013,04,25,16,52,19.60
2013,04,25,16,53,19.60
2013,04,25,16,54,19.60
2013,04,25,16,55,19.60
2013,04,25,16,56,19.50
2013,04,25,16,57,19.50
2013,04,25,16,58,19.40
2013,04,25,16,59,19.40
2013,04,25,17,00,19.40
2013,04,25,17,01,19.40
2013,04,25,17,02,19.40
2013,04,25,17,03,19.40
2013,04,25,17,04,19.50
2013,04,25,17,05,19.50
2013,04,25,17,06,19.50
2013,04,25,17,07,19.60
2013,04,25,17,08,19.60
2013,04,25,17,09,19.60
2013,04,25,17,10,19.50
2013,04,25,17,11,19.50
2013,04,25,17,12,19.50
2013,04,25,17,13,19.40
2013,04,25,17,14,19.30
2013,04,25,17,15,19.30
2013,04,25,17,16,19.20
2013,04,25,17,17,19.20
2013,04,25,17,18,19.20
2013,04,25,17,19,19.10
2013,04,25,17,20,19.10
2013,04,25,17,21,19.10
2013,04,25,17,22,19.10
2013,04,25,17,23,19.10
2013,04,25,17,24,19.20
2013,04,25,17,25,19.20
2013,04,25,17,26,19.20
2013,04,25,17,27,19.20
2013,04,25,17,28,19.20
2013,04,25,17,29,19.20
2013,04,25,17,30,19.20
2013,04,25,17,31,19.20
2013,04,25,17,32,19.20
2013,04,25,17,33,19.10
2013,04,25,17,34,19.10
2013,04,25,17,35,19.10
2013,04,25,17,36,19.00
2013,04,25,17,37,19.00
2013,04,25,17,38,19.00
2013,04,25,17,39,19.00
2013,04,25,17,40,19.00
2013,04,25,17,41,19.00